Temperature
6 4 4 5 5 6 6 5 6 7 8 7 7 7 8 9 8 8 8 9 9 10 10 11 11 11 11 12 11 12 12 12 12 12 12 11 11 12 12 12 12 12 12 12
4 4 6 6 7 6 6 5 5 7 8 8 7 7 8 8 8 8 8 8 9 9 10 10 11 11 11 11 11 11 11 11 11 11 12 12 12 12 12 12 12 12 12 12
5 6 7 7 6 6 6 5 5 6 7 7 6 6 7 8 8 8 8 8 9 9 9 10 10 11 11 11 11 11 11 11 11 11 11 11 11 11 11 11 11 11 12 12
5 6 7 6 6 6 5 6 7 6 5 4 6 5 6 7 7 7 7 8 8 9 9 10 10 10 10 11 11 11 11 11 11 11 11 11 11 11 11 11 11 11 11 12
4 6 6 6 6 6 6 6 6 6 5 4 5 4 6 6 6 7 7 8 8 9 9 9 10 10 10 10 10 10 10 11 11 11 11 11 11 11 11 11 11 11 11 11
4 6 6 6 7 7 6 5 5 4 4 4 5 5 5 5 6 7 7 7 8 8 9 9 9 10 10 10 10 10 10 10 10 10 10 10 11 11 11 11 11 11 11 11
4 5 6 6 6 6 5 4 3 3 2 3 5 5 5 6 6 7 7 7 8 8 8 8 9 9 9 10 10 10 10 10 10 10 10 10 11 11 11 11 11 11 11 11
3 4 5 6 6 5 4 4 3 4 3 4 5 5 5 6 6 7 8 8 8 8 8 8 8 9 9 9 9 9 9 9 9 9 10 10 10 11 11 11 11 11 11 11
2 3 5 5 6 6 4 4 4 3 3 3 4 4 5 6 6 6 6 7 7 7 8 8 8 8 8 8 8 9 9 9 9 9 9 10 10 10 10 11 11 11 11 11
3 3 3 4 5 5 5 4 3 3 3 3 4 4 5 5 5 6 5 6 6 7 7 7 8 8 8 8 8 8 8 8 8 9 9 9 9 10 10 10 10 11 11 11
3 2 3 3 3 4 4 4 3 2 3 3 4 5 6 5 5 5 5 6 6 6 7 7 7 7 8 7 8 8 8 8 8 8 8 9 9 9 10 10 10 11 11 11
2 1 1 2 3 4 4 3 3 2 2 2 3 4 6 5 5 5 5 6 6 6 6 7 7 7 7 7 7 7 7 7 7 8 8 8 8 9 9 10 10 10 10 11
2 1 1 3 3 3 3 3 2 2 2 2 3 4 5 4 5 5 5 5 6 6 6 6 6 6 6 6 6 6 6 7 7 7 7 7 8 8 9 10 10 10 10 10
3 1 2 3 3 2 2 2 2 2 2 2 2 4 5 5 5 5 5 5 5 5 5 5 5 6 6 6 6 6 6 6 6 6 7 7 7 8 8 9 9 9 9 10
2 1 0 1 2 2 2 3 2 2 2 2 3 3 5 5 4 4 5 5 5 5 5 5 5 5 5 5 5 6 6 6 6 6 6 7 7 7 8 8 9 9 9 10
1 1 1 1 2 2 2 3 3 3 3 3 3 3 4 4 4 4 4 4 4 4 5 5 5 5 5 5 5 5 5 5 5 5 6 6 7 7 7 7 8 8 9 9
-0 0 1 1 1 1 2 3 3 3 3 3 3 3 4 3 4 4 4 4 4 4 4 4 4 4 4 4 4 4 4 5 5 5 5 5 6 6 7 7 7 8 8 9
0 -0 0 0 0 1 3 3 3 3 3 3 3 3 3 3 4 4 5 4 4 4 4 4 4 4 4 4 4 4 4 4 4 5 5 5 5 6 6 6 7 7 8 8
1 0 0 0 -0 1 2 3 2 2 2 3 3 3 3 4 3 3 4 4 4 4 4 4 4 3 3 3 3 3 3 4 4 4 4 4 5 5 5 6 6 7 7 7
0 -0 0 -0 0 1 2 3 3 3 1 2 2 2 2 2 1 2 4 4 4 4 4 3 3 3 3 3 3 3 3 3 3 3 4 4 4 4 5 5 6 6 7 7
-1 -1 -0 -0 0 1 2 2 3 2 2 3 3 3 2 1 2 3 3 3 3 3 3 3 3 3 2 2 2 2 2 3 3 3 3 3 4 4 4 5 5 6 6 7
-1 -1 -1 -1 -0 1 2 2 2 2 3 3 3 3 3 3 3 3 3 3 3 3 3 3 2 2 2 2 2 2 2 2 2 2 3 3 3 3 4 5 5 6 6 6
-1 -0 -0 -0 1 2 3 3 3 4 3 3 3 3 3 2 2 3 2 2 2 2 2 2 2 2 2 2 2 2 2 2 2 2 2 3 3 3 3 4 5 5 5 6
-1 -1 -1 -1 -0 1 2 3 3 3 3 3 3 3 2 2 2 2 2 2 2 2 2 2 1 1 1 1 1 1 1 1 2 2 2 2 2 3 3 4 4 4 5 5
-1 -1 -1 -1 -0 0 2 2 3 3 3 2 2 2 2 2 2 1 1 1 1 1 1 1 1 1 1 1 1 1 1 1 1 1 1 2 2 2 3 3 3 4 4 4
-1 -1 -1 0 1 1 1 3 3 2 2 2 2 2 1 1 1 1 1 1 1 1 1 0 0 0 0 0 0 0 0 0 1 1 1 1 1 2 2 2 3 3 4 4
Wind_Speed
1 1 5 9 10 9 8 10 14 15 11 9 14 19 18 15 10 10 10 10 10 11 10 9 9 8 7 8 8 8 8 9 8 7 8 8 8 8 8 9 12 15 15 15
1 7 10 8 7 8 9 11 13 13 8 10 13 17 15 12 8 8 10 10 9 9 9 8 8 6 7 8 9 9 10 9 9 8 8 7 7 7 8 8 11 14 14 15
6 7 5 6 7 8 10 9 10 12 13 7 8 11 8 8 6 5 6 7 7 7 9 8 6 6 6 7 7 9 10 10 9 8 6 5 4 4 6 8 9 11 13 14
7 7 5 7 8 7 10 8 10 11 9 7 3 8 10 8 7 6 7 6 7 6 6 5 4 5 7 8 7 8 9 9 9 9 8 9 8 8 8 8 8 10 12 13
6 5 5 8 8 7 8 8 10 10 7 8 5 5 9 5 6 7 7 6 6 5 5 4 4 5 6 6 6 6 8 8 8 9 10 10 8 7 5 7 9 9 10 12
8 5 5 6 6 6 5 5 6 2 1 6 6 4 8 4 7 6 5 5 4 4 4 4 4 4 4 4 4 4 6 7 7 8 9 10 10 8 8 9 10 9 8 9
6 6 4 3 3 2 1 3 4 5 3 6 4 4 8 7 6 5 5 5 3 2 2 4 4 4 4 3 4 4 5 6 6 7 8 9 10 11 12 11 11 10 8 8
4 7 4 2 4 3 3 3 3 3 5 6 4 6 7 6 6 4 3 3 2 2 2 3 4 4 3 3 4 4 5 5 6 6 7 7 9 9 10 11 10 11 10 10
3 6 4 3 3 4 2 3 4 3 5 6 6 6 8 6 5 4 2 2 2 3 3 3 4 3 2 3 4 4 5 4 5 5 5 6 7 8 9 10 10 10 9 9
5 6 6 5 2 3 5 3 2 2 3 6 6 6 5 5 4 3 3 3 4 4 4 5 5 4 3 3 3 2 2 4 4 4 5 5 6 8 8 9 11 11 11 11
3 4 6 3 4 5 2 2 2 3 3 4 5 6 4 5 3 2 2 3 3 5 5 5 3 3 3 3 2 2 2 2 3 4 4 5 6 7 7 8 9 10 10 12
4 3 6 8 7 5 5 5 4 3 5 4 5 8 5 4 3 2 2 2 3 4 5 4 3 3 4 4 3 2 2 3 3 3 4 4 5 5 6 8 8 8 9 10
3 2 4 7 4 1 3 4 4 4 4 6 6 9 3 3 4 3 3 4 5 6 6 5 4 4 4 4 4 4 3 4 4 4 4 4 5 5 6 7 7 8 8 8
2 5 7 10 9 4 6 7 5 6 6 8 11 14 14 10 9 8 6 6 7 6 5 5 4 3 3 4 4 4 4 4 4 4 4 4 4 4 5 6 6 7 8 8
3 6 8 13 13 8 11 13 10 11 11 12 14 16 19 14 10 8 7 7 6 6 6 5 4 3 3 4 4 5 5 5 5 4 5 6 4 3 4 4 5 6 7 8
4 6 5 10 11 12 17 18 18 17 15 16 18 20 17 14 10 8 7 6 6 6 6 5 4 4 4 4 5 5 5 6 5 4 5 6 4 3 3 4 4 5 5 6
5 5 5 9 7 6 11 13 14 10 9 9 14 16 12 9 8 7 6 5 5 6 5 4 4 4 5 5 5 5 5 5 5 4 5 5 5 4 4 4 3 4 5 6
8 6 5 5 2 9 9 4 7 10 12 12 11 11 9 9 8 5 5 5 6 5 4 4 4 4 4 4 4 4 4 4 5 5 5 6 5 4 4 4 3 3 4 5
11 9 5 4 6 10 9 5 4 6 8 8 10 10 9 7 4 5 5 4 5 5 4 4 4 3 3 4 5 4 4 4 4 5 6 6 6 5 4 4 4 3 3 4
7 8 7 5 6 8 8 4 2 1 7 6 5 7 6 2 3 7 5 3 4 4 3 3 3 2 3 4 4 3 4 4 5 6 6 6 6 6 5 4 5 4 4 4
4 5 9 10 9 10 8 4 2 3 7 5 4 5 4 4 7 6 5 4 4 3 3 3 2 2 3 4 3 3 4 4 5 5 6 6 6 5 5 4 4 3 3 4
9 7 8 7 8 10 5 4 6 8 5 4 4 5 5 6 7 6 5 5 4 4 4 3 2 3 4 3 2 3 4 5 5 5 5 6 6 5 4 4 4 2 3 3
10 10 7 10 10 6 5 8 7 5 6 6 6 6 6 6 7 6 6 6 5 5 5 3 3 4 4 3 2 3 5 5 4 5 5 6 6 5 4 4 4 2 2 2
6 6 6 8 11 10 9 8 8 7 8 8 7 7 6 7 8 7 6 6 6 5 5 4 3 4 5 4 4 4 5 4 4 4 5 5 5 5 5 4 2 2 2 2
9 6 7 10 10 8 9 11 11 9 7 7 7 7 8 8 8 7 7 7 6 6 5 4 4 5 6 5 5 4 4 3 4 4 5 5 5 5 5 3 2 2 2 3
9 10 10 12 10 8 8 8 8 8 8 8 8 8 7 7 8 7 7 7 6 6 5 4 5 5 5 5 5 4 3 3 3 4 4 4 4 4 4 3 3 4 3 4
Wind_Direction
174 171 238 236 224 238 260 269 276 278 280 281 273 279 283 283 272 263 268 264 257 259 260 266 257 251 239 220 208 216 213 199 190 189 189 192 198 199 201 201 192 188 188 186
357 251 243 243 245 255 263 275 279 289 293 291 281 282 280 273 256 252 257 263 261 269 275 272 261 243 230 221 210 211 209 199 198 198 197 197 196 199 201 199 192 189 189 189
236 252 252 251 264 273 272 261 270 287 305 290 292 290 279 270 259 264 264 263 262 257 264 262 255 242 236 223 218 219 208 200 200 200 193 191 188 185 199 201 196 193 190 192
260 257 257 260 261 256 274 255 269 289 305 292 294 293 289 281 284 279 273 266 266 263 263 262 252 239 234 228 226 214 206 202 201 198 192 191 197 203 208 203 197 192 190 190
265 261 256 254 249 242 254 278 279 278 275 283 261 249 285 298 283 279 270 265 271 269 256 261 261 244 242 235 221 217 210 207 200 201 197 197 204 205 200 196 192 192 193 190
256 264 249 243 250 240 272 310 303 308 281 274 256 235 281 267 262 278 276 276 272 275 280 277 278 270 265 249 229 224 214 212 207 205 204 203 204 198 192 199 196 194 197 194
302 281 257 239 289 293 25 22 348 344 334 257 270 249 257 263 264 254 255 260 260 269 296 305 299 282 271 260 240 236 220 221 218 213 212 212 208 200 199 199 201 197 199 202
301 291 264 231 212 233 241 165 184 261 267 288 296 248 259 280 282 276 256 245 262 285 289 290 282 274 259 254 251 237 226 231 224 221 222 222 216 207 206 199 201 203 205 206
241 274 292 270 244 189 230 227 212 228 279 280 271 277 294 296 309 314 327 356 324 301 308 308 300 285 279 269 260 247 230 239 234 228 236 237 224 214 213 204 201 205 205 203
198 269 284 297 289 233 207 194 109 185 268 272 276 270 270 285 289 312 336 343 338 336 336 331 325 319 298 282 269 280 267 238 252 248 239 248 237 222 214 207 205 206 206 199
182 239 294 316 222 226 213 209 195 210 222 244 275 272 239 230 235 249 294 313 319 336 340 330 320 320 330 322 309 314 322 314 286 271 265 255 247 226 215 208 209 209 208 200
196 195 268 259 249 232 212 212 181 218 257 242 262 275 263 240 235 232 275 310 324 328 330 328 326 344 351 340 334 320 318 314 304 295 285 269 270 238 216 211 212 209 209 203
183 182 298 318 322 298 245 236 217 222 241 246 253 269 289 298 298 287 286 303 312 319 331 331 331 347 349 344 340 330 319 314 312 311 305 284 277 260 236 220 214 209 209 206
212 204 218 244 256 246 262 268 245 217 242 257 249 265 282 289 291 291 288 294 302 309 315 319 322 326 330 332 332 330 325 317 311 304 304 285 267 268 260 237 217 211 208 205
182 238 241 256 265 265 262 269 261 242 241 248 263 267 273 279 277 278 280 288 295 304 309 308 303 303 311 320 325 325 320 321 316 312 308 294 280 284 281 263 227 214 210 208
199 240 257 270 262 261 268 267 260 257 253 251 262 270 270 277 279 277 272 272 277 286 290 294 296 299 304 307 314 319 319 320 324 315 308 309 302 292 292 276 255 218 209 207
213 219 249 271 281 287 267 252 244 238 233 231 248 258 273 278 272 264 265 271 268 273 278 287 289 284 286 293 301 303 308 320 325 319 314 314 314 302 293 277 266 232 217 203
213 217 233 268 304 251 252 227 224 238 252 242 246 263 269 264 269 268 260 251 258 265 273 282 286 291 295 302 307 305 312 321 323 322 321 322 320 307 296 285 266 257 236 204
205 208 223 231 252 271 283 261 212 226 266 252 250 265 275 277 300 299 280 251 242 244 259 268 272 284 300 307 307 310 317 323 325 322 322 324 324 309 299 291 272 265 246 219
191 195 213 224 241 257 260 252 215 146 283 271 245 260 272 294 293 285 286 264 257 264 274 278 289 302 308 305 311 320 317 323 319 313 314 318 320 311 297 291 281 268 234 228
183 204 219 231 245 261 257 241 126 193 253 270 241 246 245 233 243 264 273 270 261 264 272 280 291 294 292 300 316 319 317 312 307 311 314 316 317 314 304 298 289 264 234 226
192 198 210 209 231 253 230 166 192 225 246 253 250 245 244 254 265 269 265 264 267 275 279 278 286 293 298 304 314 313 308 304 310 315 317 316 320 320 315 308 302 266 229 211
205 202 202 207 226 245 205 211 229 227 242 251 251 258 253 258 264 267 265 264 264 264 265 265 261 284 298 299 292 289 294 302 313 320 319 320 322 318 317 304 291 270 232 199
241 213 215 242 254 254 255 255 255 246 244 247 249 252 246 253 260 263 266 267 268 265 260 257 255 271 286 291 287 276 286 298 306 310 312 315 320 319 321 304 276 247 236 214
223 203 221 247 261 268 255 244 247 254 256 259 260 254 249 249 260 258 259 261 261 259 256 250 244 253 267 278 282 282 286 297 302 302 304 308 311 309 314 303 282 272 248 228
215 210 223 246 241 230 245 239 236 246 255 257 262 268 263 250 254 258 259 257 255 255 253 251 248 252 263 273 280 284 285 283 286 296 299 301 306 311 312 313 329 330 306 300
Height
1480 1483 1482 1478 1477 1475 1474 1471 1466 1456 1450 1450 1444 1437 1429 1425 1424 1422 1420 1419 1418 1417 1416 1416 1416 1417 1417 1418 1419 1420 1421 1423 1426 1428 1430 1432 1435 1438 1441 1443 1446 1450 1454 1457
1482 1480 1473 1472 1471 1471 1470 1469 1462 1452 1447 1446 1439 1431 1424 1420 1419 1417 1416 1414 1413 1412 1411 1411 1411 1411 1412 1413 1414 1415 1417 1418 1421 1423 1425 1427 1430 1432 1435 1438 1440 1444 1448 1451
1480 1473 1469 1469 1469 1468 1465 1465 1459 1454 1446 1442 1440 1429 1422 1416 1414 1413 1412 1411 1410 1409 1408 1407 1406 1406 1407 1408 1408 1410 1412 1414 1415 1418 1420 1423 1425 1427 1430 1432 1434 1438 1442 1445
1475 1469 1467 1467 1466 1465 1462 1456 1453 1450 1452 1450 1444 1439 1421 1415 1412 1409 1408 1407 1405 1405 1404 1402 1402 1404 1404 1404 1405 1406 1408 1409 1411 1413 1414 1416 1418 1419 1422 1426 1428 1432 1436 1440
1473 1467 1465 1464 1461 1460 1457 1452 1450 1449 1451 1451 1444 1445 1424 1416 1412 1407 1405 1404 1402 1401 1400 1399 1399 1400 1400 1400 1401 1402 1404 1404 1406 1408 1409 1411 1413 1415 1418 1422 1424 1426 1430 1434
1469 1464 1462 1460 1456 1456 1454 1453 1449 1450 1452 1453 1440 1441 1426 1417 1410 1405 1403 1400 1399 1399 1398 1397 1397 1397 1397 1397 1398 1398 1399 1400 1401 1403 1404 1406 1407 1410 1413 1416 1418 1421 1425 1429
1470 1463 1459 1457 1457 1455 1456 1460 1462 1461 1463 1452 1435 1434 1423 1410 1405 1402 1400 1398 1398 1397 1397 1396 1395 1394 1394 1394 1394 1395 1395 1395 1396 1398 1399 1401 1403 1405 1407 1410 1414 1416 1419 1423
1477 1467 1458 1455 1456 1457 1457 1459 1466 1464 1458 1445 1435 1430 1416 1406 1402 1400 1398 1397 1397 1397 1396 1395 1393 1392 1391 1391 1391 1391 1391 1391 1392 1393 1394 1395 1397 1400 1402 1405 1409 1411 1414 1417
1476 1467 1456 1454 1452 1454 1456 1457 1455 1459 1456 1453 1436 1425 1413 1403 1401 1399 1398 1397 1396 1396 1394 1393 1392 1391 1389 1388 1388 1387 1387 1387 1388 1389 1390 1391 1392 1394 1397 1400 1403 1406 1409 1413
1471 1470 1459 1454 1452 1451 1452 1453 1459 1459 1457 1449 1436 1427 1417 1406 1403 1400 1399 1397 1395 1395 1393 1391 1390 1389 1388 1387 1386 1385 1385 1385 1385 1385 1386 1386 1387 1389 1391 1394 1397 1401 1404 1407
1467 1470 1462 1458 1454 1453 1453 1454 1453 1455 1453 1449 1437 1422 1407 1405 1402 1401 1399 1398 1396 1394 1392 1391 1390 1389 1387 1386 1385 1384 1383 1382 1382 1382 1382 1382 1382 1384 1386 1388 1391 1395 1398 1402
1466 1470 1467 1457 1448 1447 1448 1449 1451 1455 1452 1447 1440 1421 1403 1401 1400 1400 1399 1398 1396 1395 1393 1391 1390 1388 1386 1384 1384 1383 1382 1380 1379 1379 1378 1378 1378 1379 1381 1383 1386 1390 1393 1396
1464 1468 1466 1454 1452 1450 1448 1446 1446 1448 1448 1444 1437 1418 1402 1401 1399 1398 1398 1396 1394 1392 1390 1389 1388 1386 1384 1383 1382 1381 1380 1378 1377 1377 1376 1375 1375 1375 1376 1378 1381 1384 1388 1391
1459 1463 1462 1454 1447 1448 1448 1444 1442 1444 1444 1437 1427 1414 1403 1400 1399 1397 1396 1394 1393 1391 1389 1388 1386 1384 1383 1382 1381 1379 1378 1376 1375 1374 1373 1372 1371 1371 1372 1374 1377 1380 1383 1386
1457 1458 1456 1448 1443 1444 1441 1437 1436 1436 1432 1429 1416 1410 1400 1397 1397 1395 1394 1392 1390 1389 1387 1386 1385 1383 1382 1380 1379 1377 1376 1374 1373 1371 1370 1369 1368 1368 1369 1370 1372 1375 1378 1381
1454 1453 1451 1445 1439 1438 1433 1426 1424 1423 1421 1418 1413 1406 1396 1395 1394 1392 1391 1390 1388 1387 1385 1384 1383 1381 1380 1378 1376 1375 1373 1372 1370 1369 1368 1366 1365 1365 1365 1366 1368 1371 1373 1376
1451 1451 1449 1441 1437 1435 1429 1416 1413 1412 1409 1408 1406 1398 1392 1392 1390 1389 1388 1387 1386 1385 1384 1382 1381 1380 1378 1376 1374 1372 1370 1369 1368 1367 1366 1364 1363 1363 1362 1363 1364 1366 1369 1371
1444 1446 1445 1441 1441 1436 1411 1404 1404 1404 1401 1399 1396 1392 1390 1389 1387 1386 1386 1385 1383 1382 1381 1380 1379 1377 1375 1373 1372 1370 1368 1366 1365 1364 1363 1362 1360 1360 1360 1360 1361 1363 1365 1367
1433 1438 1439 1439 1437 1424 1409 1402 1402 1402 1398 1393 1392 1389 1387 1386 1385 1384 1383 1382 1381 1380 1379 1377 1376 1374 1373 1371 1369 1368 1366 1364 1363 1361 1359 1358 1357 1357 1356 1357 1358 1359 1361 1363
1429 1431 1435 1434 1431 1421 1404 1398 1395 1399 1399 1389 1387 1386 1385 1385 1388 1383 1380 1380 1379 1378 1376 1375 1373 1372 1370 1369 1367 1366 1364 1362 1360 1359 1357 1355 1354 1354 1354 1354 1355 1356 1357 1359
1429 1430 1429 1426 1423 1411 1398 1395 1395 1403 1396 1387 1385 1384 1383 1383 1383 1380 1378 1377 1376 1375 1374 1372 1371 1369 1368 1366 1365 1363 1361 1360 1359 1357 1355 1353 1352 1351 1351 1351 1351 1352 1354 1356
1420 1423 1423 1421 1418 1407 1391 1392 1394 1390 1385 1384 1382 1381 1380 1379 1378 1376 1375 1374 1373 1371 1370 1369 1367 1366 1365 1363 1362 1360 1359 1358 1356 1355 1353 1351 1349 1348 1348 1347 1348 1349 1351 1352
1409 1406 1405 1405 1397 1388 1386 1384 1383 1382 1382 1380 1379 1378 1378 1376 1374 1373 1372 1371 1369 1368 1367 1365 1364 1362 1361 1361 1359 1358 1357 1355 1354 1352 1350 1348 1347 1346 1345 1344 1345 1346 1347 1348
1400 1396 1398 1395 1387 1383 1382 1380 1379 1379 1377 1376 1375 1375 1373 1372 1370 1369 1368 1367 1365 1364 1363 1362 1361 1359 1358 1358 1356 1355 1354 1353 1351 1349 1347 1346 1344 1343 1342 1342 1343 1343 1344 1346
1391 1391 1390 1387 1381 1379 1376 1375 1374 1373 1372 1371 1370 1370 1368 1367 1366 1365 1363 1362 1361 1360 1359 1358 1357 1356 1355 1354 1353 1352 1351 1350 1348 1347 1345 1343 1342 1341 1340 1340 1340 1340 1342 1343
1380 1382 1382 1376 1372 1373 1369 1368 1369 1368 1367 1366 1365 1364 1363 1362 1360 1359 1358 1357 1356 1355 1354 1353 1353 1352 1351 1351 1350 1349 1348 1347 1345 1344 1342 1341 1339 1338 1338 1337 1337 1338 1340 1341